World > North America > United States > New York

Hourly New Lisbon, NY Regional Weather

Feedback E-mail the Weather

Latest News

New Lisbon, NY Weather Maps

°F °C°F °C
New Lisbon Weather Map
UTC Time: 5/29/2022, 00:13
Your Time:

New Lisbon, NY Regional Weather

Expires:202205290100;;723824
ASUS41 KBGM 290010
RWRBGM

REGIONAL WEATHER ROUNDUP
NATIONAL WEATHER SERVICE BINGHAMTON NY
800 PM EDT SAT MAY 28 2022

Note: "fair" indicates few or no clouds below 12,000 feet with no
significant weather and/or obstructions to visibility.

* = Station(s) that does not report precipitation, such as rain, 
snow, etc, also no thunder or fog.


NYZ009-015>018-022>025-036-037-044>046-055>057-062-290100
...Central New York...
  
CITY           SKY/WX    TMP DP  RH WIND       PRES   REMARKS
Binghamton     PTCLDY    60  53  77 NW5       29.90R                  
Cortland       FAIR      63  50  63 CALM      29.91R                  
Dansville      CLOUDY    66  55  67 VRB3      29.91R                  
Elmira         CLOUDY    65  57  75 NE3       29.89R                  
Endicott       CLEAR     63  54  72 CALM      29.89R                  
Ithaca         PTCLDY    63  53  70 N3        29.91R                  
Hamilton       CLEAR     59  50  72 NW6       29.90R                  
Monticello     CLEAR     63  55  75 NW8       29.88R                  
Norwich        CLEAR     61  50  67 N3        29.92R                  
Oneonta        CLEAR     59  50  72 NW6       29.90R                  
Penn Yan       MOCLDY    67  53  61 NW5       29.91R                  
Rome           MOCLDY    65  52  62 NW7       29.88R                  
Seneca Falls   CLEAR     64  48  55 N6        29.91R                  
Sidney         CLEAR     63  52  67 NW5       29.89R                  
Skaneateles    FAIR      63  52  67 CALM      29.90R                  
Syracuse       PTCLDY    64  51  62 NW6       29.89R                  
$$
 

SKY/WX - Weather  TMP - Temperature  DP - Dew Point  RH - Humidity
WIND - Wind Direction/Speed PRES - Barometric Pressure VSB - Visibility
WCI - Wind Chill Index E13G22 Wind - East Wind 13 mph/Gusts of 22 mph

Trending Headlines

New Lisbon Radar Loop



New Lisbon Quick Facts


National Two Day Weather Forecast


E-mail the New Lisbon Weather Forecast

Voice your opinion or tell us about page issues...